Regional Weather Roundup
Issued by NWS

Home | Current Version | Previous Version | Text Only | Print | Product List | Glossary On
Versions: 1 2 3 4 5 6 7 8 9 10 11 12 13 14 15 16 17 18 19 20 21 22 23 24 25 26 27 28 29 30 31 32 33 34 35 36 37 38 39 40 41 42 43 44 45 46 47 48 49 50
000
ASUS43 KLOT 230710
RWRIL

ILLINOIS REGIONAL WEATHER ROUNDUP
NATIONAL WEATHER SERVICE CHICAGO/ROMEOVILLE IL
100 AM CST SUN NOV 23 2014

NOTE: "FAIR" INDICATES FEW OR NO CLOUDS BELOW 12,000 FEET WITH NO
SIGNIFICANT WEATHER AND/OR OBSTRUCTIONS TO VISIBILITY.

* THESE STATIONS ARE NOT UNDER NWS QUALITY CONTROL. THEY ALSO MAY NOT
  REPORT WEATHER SUCH AS PRECIPITATION OR FOG.

ILZ001-002-007-009-015-016-024-230800-
NORTHWEST ILLINOIS

CITY           SKY/WX    TMP DP  RH WIND       PRES   REMARKS
MOLINE         CLOUDY    53  48  83 S10       29.73F
STERLING*      CLOUDY    48  46  93 S6        29.78F
SAVANNA*       CLOUDY    49  47  90 S12       29.75F
$$

ILZ003-004-008-010-011-017-018-230800-
NORTH CENTRAL ILLINOIS

CITY           SKY/WX    TMP DP  RH WIND       PRES   REMARKS
ROCKFORD       CLOUDY    48  45  89 S9        29.80F
FREEPORT*      CLOUDY    48  46  95 S13       29.78F FOG
ROCHELLE*      CLOUDY    47  46  97 S12       29.80F FOG
DE KALB*       CLOUDY    47  45  94 S14       29.81F
PERU*          CLOUDY    51  48  87 S12       29.81F
$$

ILZ005-006-012>014-019>023-230800-
NORTHEAST ILLINOIS

CITY           SKY/WX    TMP DP  RH WIND       PRES   REMARKS
CHICAGO-OHARE  CLOUDY    51  46  83 S16G26    29.82F
CHICAGO-MIDWAY CLOUDY    52  47  83 S12       29.85F
AURORA         CLOUDY    52  46  80 S14       29.82F
LANSING*       CLOUDY    49  46  87 S14       29.87F
JOLIET*        CLOUDY    49  46  87 S9        29.84F
WAUKEGAN       CLOUDY    50  46  86 SW12      29.80F
DUPAGE AIRPORT CLOUDY    50  46  86 S14       29.81F
KANKAKEE*      CLOUDY    48  46  91 S10       29.87F
WHEELING       CLOUDY    52  47  83 S14       29.84F
MORRIS*        CLOUDY    50  48  91 S10       29.82F
ROMEOVILLE*    CLOUDY    50  46  84 S14       29.83F
NORTHERLY ISL    N/A     51  45  79 S13         N/A
$$

LMZ740>746-230800-
SOUTHERN LAKE MICHIGAN

STATION/POSITION SKY/WX   TEMP    WIND        PRES    VSBY  WAVE
                          AIR SEA DIR/SP/G                  HT/PER
                          (F)     (DEG/KT/KT) (MB)    (MI)  (FT/S)
SOUTHERN BUOY              46 43  180/ 16/ 17 1010.2F         3/ 5
WAUKEGAN HARBOR            52     230/ 16/ 23   N/A
HARRISON CRIB              50     200/ 24/ 30   N/A
BURNHAM HARBOR             51     170/ 12/ 18   N/A
CALUMET HARBOR             49     180/  7/ 12 1009.9F
MICHIGAN CITY              51     170/ 17/ 23   N/A
$$

ILZ025>027-034>036-040-047-049-050-058-095>099-230800-
WEST-CENTRAL ILLINOIS

CITY           SKY/WX    TMP DP  RH WIND       PRES   REMARKS
QUINCY         MOCLDY    51  47  86 S10       29.77F
GALESBURG*     CLOUDY    51  48  90 S9        29.76F
MACOMB*        CLOUDY    52  49  89 S12       29.80S
JACKSONVILLE*  MOCLDY    53  49  88 S9        29.80F
PITTSFIELD*    MOCLDY    52  48  87 S10       29.80F
$$

ILZ028>032-037-038-041>044-048-051>054-059>061-230800-
CENTRAL ILLINOIS

CITY           SKY/WX    TMP DP  RH WIND       PRES   REMARKS
PONTIAC        CLOUDY    51  48  89 S14       29.85S
BLOOMINGTON    MOCLDY    49  47  93 S13       29.85F
DECATUR        MOCLDY    50  45  83 S10       29.85F
PEORIA         CLOUDY    54  48  80 S14       29.81F
LACON*         CLOUDY    52  48  86 S10       29.80F
LINCOLN*       CLOUDY    50  47  87 S9        29.84F
SPRINGFIELD    CLOUDY    52  47  83 S12       29.82F
TAYLORVILLE    MOCLDY    50  43  76 S12       29.84F
$$

ILZ033-039-045-046-055>057-062-063-230800-
EAST-CENTRAL ILLINOIS

CITY           SKY/WX    TMP DP  RH WIND       PRES   REMARKS
CHAMPAIGN      CLOUDY    49  45  86 SE14      29.87F
DANVILLE*      CLOUDY    47  46  93 SE9       29.87F
RANTOUL*       CLOUDY    49  47  92 S10       29.87F
MATTOON        CLOUDY    50  42  74 S13       29.88F
PARIS*         DRIZZLE   47  45  91 SE9       29.92F
$$

ILZ079-100>102-230800-
SOUTHWEST ILLINOIS

CITY           SKY/WX    TMP DP  RH WIND       PRES   REMARKS
ALTON          CLOUDY    52  47  83 SE8       29.85F
BELLEVILLE     CLOUDY    53  45  74 S10       29.86F
CAHOKIA*       CLOUDY    55  45  68 S6        29.85F
SPARTA*        PTCLDY    54  40  60 S9G17     29.89F
$$

ILZ064>066-069>071-074>076-080>082-084>086-088>090-092>094-230800-
SOUTH-CENTRAL ILLINOIS

CITY           SKY/WX    TMP DP  RH WIND       PRES   REMARKS
CARBONDALE     CLEAR     52  39  61 S10       29.91F
CAIRO*         CLEAR     55  41  59 SE8       29.91F
EFFINGHAM*     CLOUDY    52  38  60 S7        29.90F
MARION         CLEAR     55  39  54 S9        29.92F
MT. VERNON     MOCLDY    54  37  54 S10       29.92F
CENTRALIA*     MOCLDY    54  39  56 S10       29.89F
SALEM*           N/A     57  40  52 S12G17    29.90S
METROPOLIS*    CLEAR     50  41  69 CALM      29.93F
$$

ILZ067-068-072-073-078-083-087-091-230800-
SOUTHEAST ILLINOIS

CITY           SKY/WX    TMP DP  RH WIND       PRES   REMARKS
LAWRENCEVILLE  MOCLDY    49  38  65 S10       29.95F
FLORA*         MOCLDY    51  38  62 S8        29.92F
FAIRFIELD*     PTCLDY    51  37  59 SE3       29.92F
HARRISBURG*    CLEAR     46  38  71 SE5       29.95F
ROBINSON*      CLOUDY    51  38  60 S9        29.94F
CARMI*         CLEAR     47  39  74 SE10      29.94F
$$

ABBREVIATIONS USED IN REMARKS
   TC - TEMPERATURE IN CELSIUS
  WCI - WIND CHILL INDEX
   HX - HEAT INDEX
  VSB - VISIBILITY
$$




USA.gov is the U.S. government's official web portal to all federal, state and local government web resources and services.